Airfield :
LOGIN :

Register | Disclaimer

   EN    FR    IT 

 










Legend :    VFR   Marginal VFR   IFR   Intensive IFR   Very Intensive IFR
Visi :
Ceiling :
>= 8 km
>= 3000ft
5 to 8 km
1000 to 3000 ft
1500m to 5 km
500 to 1000 ft
800 to 1500m
200 to 500 ft
< 800m
< 200 ft
Symbols :   Thunderstorms  Fog  Heavy snow  Heavy precipitations  Wind > 20 kt
SIGMETs :     Misc.  Thunderstorms  Icing  Turbulence  Mountain Waves  Volcanic Ashes







- Airport Elevation : 270 ft
- IATA code : OXF
- Download approach charts


EGTK - Oxford (Kidlington)

CURRENT METAR :
  • 210920Z VRB03KT 9999 OVC020 19/14 Q1014

EXPIRED METARs :
  • 210850Z 07001KT 9999 OVC018 18/14 Q1014
  • 210820Z VRB02KT 9999 FEW017 BKN023 19/15 Q1014
  • 210750Z 04004KT 010V070 8000 FEW024 18/14 Q1014
  • 210720Z 01001KT 8000 SCT019 BKN024 17/14 Q1014
  • 210650Z 01003KT 8000 OVC018 16/14 Q1014

TAF TAF EGTK
Valid from the 21 at 09:00 until the 21 at 18:00 UTC


210756Z 2109/2118 34004KT 8000 SCT030
BECMG 2109/2111 9999
PROB30
TEMPO 2109/2111 BKN012
No reported NOTAMs for that airfield.



MET'MAP, your aeronautical weather chart ! - Copyright ORBIFLY December 2007 - Disclaimer

ORBIFLY MET'MAP TEAM :

Programming & Development : Alexandra Zaïnal
Concept & Development : Baudouin d'Aumeries
Co-Development & Prog : Marc-Olivier Méhu
Technical & hardware support : Manuel Goepfert

Contact : metmap@orbifly.com




SOURCES & CREDITS :

   NOAA